Lake Conroe Weather Center

Moon Phase Calendar



Lake Conroe Water Level
Online Cameras

 


      

Current Conditions in Willis
10/15/2021 3:33:38 PM

89°F
Feels Like 101
Clouds
Humidity
67%
Pressure
29.91"
Wind
1 mph (NNW)
Dew Point
76°F
UV Index
3/10 (Moderate)
Visibility
6 mi

Hourly Forecast

Date & Time Fri, Oct 15
3:00 PM
Fri, Oct 15
4:00 PM
Fri, Oct 15
5:00 PM
Fri, Oct 15
6:00 PM
Fri, Oct 15
7:00 PM
Fri, Oct 15
8:00 PM
Fri, Oct 15
9:00 PM
Fri, Oct 15
10:00 PM
Fri, Oct 15
11:00 PM
Sat, Oct 16
12:00 AM
Sat, Oct 16
1:00 AM
Sat, Oct 16
2:00 AM
Sat, Oct 16
3:00 AM
Sat, Oct 16
4:00 AM
Sat, Oct 16
5:00 AM
Sat, Oct 16
6:00 AM
Sat, Oct 16
7:00 AM
Sat, Oct 16
8:00 AM
Sat, Oct 16
9:00 AM
Sat, Oct 16
10:00 AM
Sat, Oct 16
11:00 AM
Sat, Oct 16
12:00 PM
Sat, Oct 16
1:00 PM
Sat, Oct 16
2:00 PM
Sat, Oct 16
3:00 PM
Sat, Oct 16
4:00 PM
Sat, Oct 16
5:00 PM
Sat, Oct 16
6:00 PM
Sat, Oct 16
7:00 PM
Sat, Oct 16
8:00 PM
Sat, Oct 16
9:00 PM
Sat, Oct 16
10:00 PM
Sat, Oct 16
11:00 PM
Sun, Oct 17
12:00 AM
Sun, Oct 17
1:00 AM
Sun, Oct 17
2:00 AM
Sun, Oct 17
3:00 AM
Sun, Oct 17
4:00 AM
Sun, Oct 17
5:00 AM
Sun, Oct 17
6:00 AM
Sun, Oct 17
7:00 AM
Sun, Oct 17
8:00 AM
Sun, Oct 17
9:00 AM
Sun, Oct 17
10:00 AM
Sun, Oct 17
11:00 AM
Sun, Oct 17
12:00 PM
Sun, Oct 17
1:00 PM
Sun, Oct 17
2:00 PM
Condition
Clouds

Clouds

Clouds

Rain

Clouds

Clouds

Clouds

Clear

Clouds

Clouds

Clouds

Clouds

Clouds

Clouds

Clouds

Clouds

Clouds

Clouds

Clouds

Clouds

Clouds

Clouds

Clouds

Clouds

Clouds

Clouds

Clouds

Clouds

Clouds

Clouds

Clouds

Clouds

Clouds

Clouds

Clouds

Clouds

Clouds

Clouds

Clouds

Clouds

Clouds

Clouds

Clouds

Clouds

Clouds

Clouds

Clouds

Clouds
Temperature 89°F89°F88°F86°F82°F78°F72°F70°F68°F66°F65°F64°F63°F62°F61°F60°F59°F58°F60°F64°F67°F70°F72°F74°F75°F75°F74°F71°F65°F63°F62°F60°F59°F58°F57°F57°F56°F56°F55°F54°F54°F54°F59°F64°F68°F72°F74°F75°F
Feels Like 99°F101°F97°F92°F84°F78°F72°F69°F67°F65°F64°F63°F62°F60°F59°F58°F57°F57°F59°F62°F65°F68°F70°F72°F73°F73°F73°F69°F63°F61°F59°F58°F57°F56°F55°F54°F54°F53°F52°F51°F51°F52°F57°F62°F67°F70°F72°F74°F
Cloudiness 50%50%52%51%48%24%12%10%17%33%42%100%100%97%96%97%97%100%100%100%100%100%99%100%99%97%79%66%65%98%99%99%98%99%97%98%99%99%98%94%95%100%100%99%90%81%74%96%
Visibility 6 mi6 mi6 mi6 mi6 mi6 mi6 mi6 mi6 mi6 mi6 mi6 mi6 mi6 mi6 mi6 mi6 mi6 mi6 mi6 mi6 mi6 mi6 mi6 mi6 mi6 mi6 mi6 mi6 mi6 mi6 mi6 mi6 mi6 mi6 mi6 mi6 mi6 mi6 mi6 mi6 mi6 mi6 mi6 mi6 mi6 mi6 mi6 mi
Precipitation 24%21%18%27%23%0%0%0%0%0%0%0%0%0%0%0%0%0%0%0%0%0%0%0%0%0%0%0%0%0%0%0%0%0%0%0%0%0%0%0%0%0%0%0%0%0%0%0%
Humidity 62%67%65%63%60%58%57%55%53%52%53%54%52%50%50%51%53%55%52%43%34%28%25%23%22%21%23%28%34%35%37%39%42%44%46%47%47%48%49%51%52%53%47%40%33%28%26%24%
Dew Point 75°F76°F74°F72°F67°F62°F56°F53°F50°F48°F47°F47°F45°F43°F42°F42°F42°F42°F43°F40°F37°F35°F35°F34°F33°F33°F34°F37°F36°F35°F35°F35°F36°F36°F36°F36°F36°F36°F36°F36°F36°F37°F38°F39°F38°F37°F36°F36°F
Pressure 29.91"29.91"29.91"29.91"29.94"29.97"30.06"30.09"30.12"30.12"30.15"30.15"30.18"30.18"30.21"30.21"30.24"30.27"30.27"30.3"30.27"30.27"30.24"30.24"30.21"30.18"30.18"30.18"30.21"30.24"30.24"30.24"30.27"30.24"30.27"30.27"30.27"30.27"30.27"30.27"30.27"30.3"30.3"30.3"30.3"30.27"30.24"30.21"
Wind Speed 8.5 mph11.5 mph13.5 mph13.2 mph14.7 mph15 mph15.8 mph14.9 mph14.4 mph13.9 mph13.2 mph12.6 mph12.7 mph12.9 mph12.7 mph11.8 mph11.1 mph10.3 mph11.2 mph12.9 mph12.7 mph12.2 mph11.2 mph10.5 mph10.2 mph10.2 mph9.7 mph7.9 mph5.8 mph5.5 mph5.4 mph5.5 mph5.1 mph5 mph4.6 mph4.8 mph4.8 mph4.4 mph4.3 mph4.3 mph4.3 mph3.8 mph3.9 mph4.1 mph4.1 mph3.8 mph4.1 mph3.8 mph
Wind
Direction
297°
WNW
304°
NW
318°
NW
331°
NNW
343°
NNW
352°
N
358°
N
360°
N

N

N

N
10°
N
11°
N
13°
NNE
15°
NNE
16°
NNE
17°
NNE
17°
NNE
24°
NNE
28°
NNE
29°
NNE
28°
NNE
24°
NNE
22°
NNE
20°
NNE
20°
NNE
19°
NNE
17°
NNE
15°
NNE
20°
NNE
22°
NNE
33°
NNE
31°
NNE
29°
NNE
24°
NNE
28°
NNE
36°
NE
26°
NNE
33°
NNE
40°
NE
48°
NE
43°
NE
61°
ENE
72°
ENE
81°
E
74°
ENE
78°
ENE
86°
E

Daily Forecast

Date High Low Precip. Humidity
Today
Oct 15

Rain
90 °F
68 °F
38%
56%
Saturday
Oct 16

Clouds
75 °F
58 °F
0%
25%
Sunday
Oct 17

Clouds
75 °F
54 °F
0%
26%
Monday
Oct 18

Clear
78 °F
56 °F
0%
28%
Tuesday
Oct 19

Clouds
82 °F
59 °F
0%
47%
Wednesday
Oct 20

Clouds
86 °F
66 °F
0%
52%
Thursday
Oct 21

Rain
89 °F
69 °F
31%
46%
Friday
Oct 22

Rain
74 °F
65 °F
100%
43%
Saturday
Oct 23

Clear
80 °F
61 °F
25%
37%
Sunday
Oct 24

Clear
83 °F
60 °F
0%
36%
Monday
Oct 25

Clear
83 °F
61 °F
0%
32%
Tuesday
Oct 26

Clear
83 °F
61 °F
0%
41%
Wednesday
Oct 27

Clear
85 °F
62 °F
0%
49%
Thursday
Oct 28

Clouds
85 °F
72 °F
2%
65%
Friday
Oct 29

Rain
83 °F
70 °F
33%
54%
Saturday
Oct 30

Rain
83 °F
74 °F
83%
67%

Temperature 8-14 Day Outlook



Precipitation 8-14 Day Outlook




Quick Links
Lake Conroe News
Lake Conroe Photos
Lake Conroe Videos




About Us
Contact Us
Site Map
Search Site
Advertise With Us
   
Conroe.USLakes.info
THE LAKE CONROE WEBSITE

Copyright 2021, Lakes Online
Privacy    |    Legal